Home   Weather   Harlingen   Past weeks
Flag for USA

Past Weather in Harlingen, Texas, USA — July 2018

Now
70 °F

Sunny.


Feels Like: 65 °F
Forecast: 80 / 70 °F
Wind: 5 mph from Northwest

Location: Brownsville / South Padre Island International Airport

Current Time: Jan 18, 2020 at 9:19:47 am

Latest Report: Jan 18, 2020 at 7:53 am


Visibility: 10 mi

Pressure: 30.09 "Hg

Humidity: 93%

Dew Point: 68 °F

Location of HarlingenLocation

July 2018 Weather in Harlingen — Graph

°F

High & Low Weather Summary for July 2018

 TemperatureHumidityPressure
High101 °F (Jul 24, 2:53 pm)97% (Jul 1, 7:53 am)30.15 "Hg (Jul 1, 7:53 am)
Low76 °F (Jul 7, 6:53 am)37% (Jul 23, 4:53 pm)29.83 "Hg (Jul 23, 5:53 pm)
Average86 °F75%29.98 "Hg
* Reported Jul 1 12:53 am — Jul 31 11:53 pm, Harlingen. Weather by CustomWeather, © 2020

Note: Actual official high and low records may vary slightly from our data, if they occured in-between our weather recording intervals... More about our weather records

Harlingen Weather History for July 1, 2018

Scroll right to see more
 ConditionsComfort  
Time TempWeatherWind HumidityBarometerVisibility
12:53 am
Sun, Jul 1
82 °FClear.14 mph88%29.95 "Hg10 mi
1:53 am81 °FClear.12 mph91%29.94 "Hg10 mi
2:53 am81 °FPassing clouds.10 mph94%29.93 "Hg10 mi
3:53 am81 °FOvercast.12 mph94%29.91 "Hg10 mi
4:42 am80 °FPassing clouds.7 mph96%29.92 "Hg10 mi
4:53 am80 °FPassing clouds.6 mph94%29.91 "Hg10 mi
5:53 am80 °FOvercast.6 mph94%29.92 "Hg10 mi
6:53 am80 °FOvercast.5 mph94%29.93 "Hg10 mi
7:53 am81 °FOvercast.8 mph97%29.94 "Hg10 mi
8:04 am82 °FScattered clouds.8 mph94%29.95 "Hg10 mi
8:53 am85 °FCloudy.13 mph83%29.96 "Hg10 mi
9:27 am87 °FBroken clouds.15 mph75%29.97 "Hg10 mi
9:53 am87 °FSunny.17 mph69%29.96 "Hg10 mi
10:15 am88 °FPartly sunny.14 mph70%29.97 "Hg10 mi
10:53 am92 °FPartly sunny.15 mph60%29.96 "Hg10 mi
12:00 pm93 °FScattered clouds.14 mph56%29.97 "Hg10 mi
12:53 pm93 °FScattered clouds.17 mph54%29.95 "Hg10 mi
1:53 pm95 °FScattered clouds.13 mph51%29.93 "Hg10 mi
2:53 pm94 °FScattered clouds.17 mph54%29.92 "Hg10 mi
3:53 pm93 °FSunny.21 mph58%29.90 "Hg10 mi
4:53 pm94 °FPassing clouds.18 mph54%29.90 "Hg10 mi
5:53 pm91 °FSunny.18 mph60%29.90 "Hg10 mi
6:53 pm89 °FSunny.18 mph63%29.90 "Hg10 mi
7:53 pm86 °FSunny.13 mph72%29.91 "Hg10 mi
8:53 pm84 °FClear.15 mph80%29.92 "Hg10 mi
9:53 pm83 °FClear.14 mph82%29.94 "Hg10 mi
10:53 pm82 °FClear.9 mph85%29.97 "Hg10 mi
11:53 pm81 °FClear.10 mph88%29.98 "Hg10 mi
Weather by CustomWeather, © 2020

See weather overview

Advertising